This is the latest recevied weather packets stored in our database for station/object WL7CLI. If no packets are shown the sender has not sent any weather packets the latest 10 day(s).
| Time | Temp. | Humidity | Pressure | Rain* | Wind** | Luminosity | Snow |
|---|---|---|---|---|---|---|---|
| 1777575896 | 11.67° C | 59% | 1017.5 hPa | 0 mm | - | - | - |
| 1777575504 | 12.22° C | 61% | 1017.2 hPa | 0 mm | - | - | - |
| 1777575373 | 11.67° C | 66% | 1017.6 hPa | 0 mm | - | - | - |
| 1777574698 | 11.11° C | 63% | 1017.8 hPa | 0 mm | - | - | - |
| 1777574172 | 11.11° C | 61% | 1017.8 hPa | 0 mm | - | - | - |
| 1777573704 | 11.11° C | 61% | 1017.5 hPa | 0 mm | - | - | - |
| 1777573497 | 11.11° C | 61% | 1017.8 hPa | 0 mm | - | - | - |
| 1777572972 | 11.11° C | 60% | 1017.9 hPa | 0 mm | - | - | - |
| 1777572297 | 11.11° C | 60% | 1017.9 hPa | 0 mm | - | - | - |
| 1777572155 | 10.56° C | 62% | 1017.4 hPa | 0 mm | - | - | - |
| 1777571904 | 10.56° C | 62% | 1017.4 hPa | 0 mm | - | - | - |
| 1777571772 | 10.56° C | 62% | 1017.8 hPa | 0 mm | - | - | - |
| 1777571096 | 11.11° C | 59% | 1017.9 hPa | 0 mm | - | - | - |
| 1777570571 | 11.11° C | 61% | 1017.9 hPa | 0 mm | - | - | - |
| 1777570104 | 10.56° C | 61% | 1017.5 hPa | 0 mm | - | - | - |
| 1777569898 | 10.56° C | 60% | 1018 hPa | 0 mm | - | - | - |
| 1777569372 | 10.56° C | 62% | 1018 hPa | 0 mm | - | - | - |
| 1777568697 | 11.11° C | 58% | 1018 hPa | 0 mm | - | - | - |
| 1777568304 | 11.11° C | 58% | 1017.4 hPa | 0 mm | - | - | - |
| 1777568171 | 11.11° C | 58% | 1017.8 hPa | 0 mm | - | - | - |
| 1777567747 | 11.11° C | 59% | 1017.7 hPa | 0 mm | - | - | - |
| 1777567496 | 11.11° C | 59% | 1017.7 hPa | 0 mm | - | - | - |
| 1777566973 | 11.11° C | 60% | 1017.7 hPa | 0 mm | - | - | - |
| 1777566755 | 11.67° C | 60% | 1017.1 hPa | 0 mm | - | - | - |
| 1777566504 | 11.67° C | 60% | 1017.1 hPa | 0 mm | - | - | - |
* Rain latest hour (hover to see other rain measurements)
** Current wind speed in m/s (hover to see current wind gust speed)